Temperature
19 19 19 19 20 20 20 20 20 20 20 20 20 20 20 19 19 19 19 19 19 19 19 18 18 18 18 18 18 18 18 18 18 18 17 17 17 17 17 17 17 17 17
20 20 20 20 20 20 20 20 20 20 20 20 20 20 20 19 19 19 19 19 19 19 19 18 18 18 18 18 18 18 18 18 18 17 17 17 17 17 17 17 17 17 17
20 20 20 20 20 20 20 20 20 20 20 20 20 20 20 19 19 19 19 19 19 19 18 18 18 18 18 18 18 18 18 18 17 17 17 17 17 17 17 17 17 17 17
20 20 20 20 20 20 20 20 20 20 20 20 20 20 19 19 19 19 19 19 19 18 18 18 18 18 18 18 18 18 18 17 17 17 17 17 17 17 17 17 17 17 17
20 20 20 20 20 20 20 20 20 20 20 20 19 19 19 19 19 19 19 19 19 19 18 18 18 18 18 18 18 18 18 17 17 17 17 17 17 17 17 17 17 17 17
20 20 20 20 20 20 20 20 19 19 19 19 19 19 19 19 19 19 19 19 19 19 18 18 18 18 18 18 17 17 17 17 18 18 17 18 18 18 17 17 17 17 17
20 20 20 20 20 20 19 19 19 19 19 19 19 19 19 19 19 19 19 19 19 18 18 18 18 18 18 17 17 17 17 17 18 18 18 18 18 18 18 18 17 17 17
20 20 19 19 19 19 19 19 19 19 19 19 19 19 19 19 18 18 18 18 18 18 18 18 18 18 18 17 17 17 17 17 18 18 18 18 18 18 18 18 17 17 17
19 19 19 19 19 19 19 19 19 19 19 19 19 19 18 18 18 18 18 18 18 18 18 18 18 18 17 17 17 17 17 17 17 18 18 18 18 18 18 18 18 17 17
19 19 19 19 19 19 19 19 19 19 19 19 18 18 18 18 18 18 18 18 18 18 18 18 18 18 17 17 17 17 17 17 17 18 18 18 17 18 18 18 18 18 17
19 19 19 19 19 19 19 19 19 19 18 18 18 18 18 18 18 18 18 18 18 18 18 18 17 17 17 17 17 17 17 17 17 17 17 17 17 17 17 17 17 18 17
19 19 19 19 19 19 19 19 18 18 18 18 18 18 18 18 18 18 17 17 17 17 17 17 17 17 17 17 17 17 17 17 17 17 17 17 18 17 17 17 17 17 17
19 19 19 19 19 19 19 18 18 18 18 18 18 18 18 17 17 17 17 17 17 17 17 17 17 17 17 17 17 17 17 17 17 17 17 17 17 17 17 17 17 17 17
19 19 19 19 19 18 18 18 18 18 18 18 18 18 17 17 17 17 17 17 17 17 17 17 17 17 17 17 17 17 17 17 17 17 17 17 17 17 17 17 17 17 17
19 19 19 18 18 18 18 18 18 18 18 18 17 17 17 17 17 17 17 17 17 17 17 17 17 17 17 17 17 17 17 16 17 17 17 17 17 17 17 17 17 17 17
19 19 19 18 18 18 18 18 18 18 18 17 17 17 17 17 17 16 16 16 16 16 16 16 16 16 16 16 16 16 16 16 16 16 17 17 17 17 17 17 17 17 17
19 19 19 18 18 18 18 18 18 18 17 17 17 17 17 16 16 16 16 16 16 16 16 16 16 16 16 16 16 16 16 16 16 16 16 16 16 17 16 17 17 17 16
18 19 18 18 18 18 18 18 17 17 17 17 17 17 16 16 16 16 16 16 16 15 15 15 15 15 15 15 15 15 15 16 16 16 16 16 16 16 16 16 16 16 16
18 18 18 18 18 18 18 17 17 17 17 17 16 16 16 16 16 15 15 15 15 15 15 15 15 15 15 15 15 15 15 15 15 16 16 16 16 16 16 16 16 16 16
18 18 18 18 18 18 17 17 17 17 17 16 16 16 16 15 15 15 15 15 15 15 14 14 14 14 14 14 15 15 15 15 15 15 16 16 16 16 16 16 16 16 16
18 18 18 18 18 18 17 17 17 17 17 16 16 16 15 15 15 15 15 15 14 14 14 14 14 14 14 14 14 15 15 15 15 15 15 15 15 16 16 16 16 16 16
18 18 18 18 18 18 17 17 17 17 16 16 16 15 15 15 15 15 14 14 14 14 14 14 13 13 13 13 14 14 14 14 14 14 15 15 15 15 15 16 16 16 16
18 18 18 18 18 18 17 17 17 16 16 16 16 15 15 15 15 14 14 14 14 14 13 13 13 13 13 13 13 13 13 13 14 14 14 14 14 15 15 15 15 15 16
18 18 18 18 18 17 17 17 17 17 17 16 16 15 15 15 14 14 14 14 13 13 13 13 13 13 13 13 12 12 13 13 13 13 14 14 14 14 14 15 15 15 15
18 18 18 18 18 17 17 17 17 17 16 16 15 15 15 15 14 14 14 13 13 13 13 13 13 12 12 12 12 12 12 12 12 12 13 13 14 14 14 14 14 14 15
18 18 18 18 18 18 17 17 17 16 16 16 16 15 15 14 14 14 13 13 13 13 13 12 12 12 12 12 12 12 12 12 11 11 12 12 13 13 13 14 14 14 14
Wind_Speed
8 12 19 19 19 20 20 21 21 20 20 19 19 18 17 16 16 14 13 12 12 11 11 12 12 12 12 12 12 12 13 13 13 13 14 14 15 15 15 16 15 14 16
12 16 20 20 20 20 20 20 20 20 19 19 18 17 16 15 14 14 13 12 11 11 11 11 12 12 12 12 12 12 12 12 12 13 14 14 14 14 15 15 14 14 16
15 16 20 20 19 19 20 19 19 18 18 18 17 16 15 14 13 12 12 11 11 11 11 11 12 12 12 12 12 11 11 11 11 12 12 11 12 13 14 14 15 15 15
15 16 18 20 20 19 19 18 18 17 17 16 15 15 14 13 12 12 11 11 10 10 10 11 11 11 11 11 11 11 10 10 11 11 9 9 10 13 14 14 14 14 14
13 15 18 21 20 19 18 17 17 17 16 15 14 13 12 12 11 11 10 9 9 9 10 10 10 10 10 10 9 9 9 9 10 9 8 8 10 13 14 14 14 14 14
11 14 18 20 19 18 17 17 16 16 15 14 13 12 11 11 10 10 9 9 8 8 8 9 8 8 8 8 8 7 7 8 9 8 8 8 10 13 13 13 13 13 13
10 12 17 20 19 18 17 17 16 15 14 14 13 12 11 10 9 9 8 8 7 7 7 7 7 7 6 6 5 5 5 8 8 8 9 9 10 13 13 13 13 13 12
11 11 15 18 18 18 17 16 15 15 14 13 12 11 10 9 8 8 7 7 6 6 6 5 5 5 4 4 3 3 4 6 7 7 8 9 11 13 13 13 13 13 12
9 9 10 14 16 17 16 16 15 14 13 13 12 11 10 9 8 7 6 6 5 5 5 5 4 3 2 2 2 2 2 4 6 6 7 8 11 13 13 13 13 13 13
8 7 7 10 12 13 14 15 15 14 13 12 11 10 9 8 7 7 6 5 5 5 5 4 3 3 2 1 0 1 2 3 4 5 5 8 11 13 13 13 14 14 13
8 6 6 7 9 10 11 13 13 13 12 11 10 10 8 6 5 4 5 6 6 5 5 4 3 2 1 1 1 1 1 2 3 3 5 8 11 12 13 14 14 14 14
10 8 6 6 7 8 9 9 9 9 9 8 7 6 6 5 3 3 3 4 4 5 4 4 3 2 2 2 2 2 1 2 3 3 5 8 11 13 14 15 15 15 14
8 8 7 6 6 6 5 7 6 6 7 6 6 6 6 4 2 1 1 1 1 1 1 1 1 1 1 1 2 2 2 2 3 3 4 7 10 12 14 15 16 16 15
7 7 7 6 5 6 6 6 6 5 5 5 5 6 5 3 2 1 1 1 1 1 1 1 0 1 1 1 1 1 2 2 3 4 4 6 8 11 13 14 16 16 16
7 6 6 7 6 5 4 4 5 5 5 6 6 6 6 4 2 2 2 2 2 2 1 1 0 1 1 1 1 1 2 3 4 5 6 7 8 10 13 13 14 15 15
7 6 6 6 5 5 4 3 4 6 7 7 7 6 6 5 4 3 2 2 2 2 1 1 1 0 1 1 2 2 3 4 4 5 6 7 8 10 12 13 14 15 15
7 7 6 6 5 5 5 4 5 7 8 6 6 7 7 6 5 4 3 2 2 3 3 3 2 2 1 1 2 2 2 3 4 5 6 7 7 9 11 13 13 14 16
7 7 7 7 7 6 5 5 5 7 7 6 6 7 7 7 7 5 3 2 3 4 4 2 2 2 2 2 2 2 2 2 4 4 5 5 6 7 9 12 13 15 16
8 9 8 7 7 6 5 5 5 6 6 6 6 6 6 7 7 6 4 3 4 4 3 2 2 1 1 2 2 2 2 2 2 3 3 4 5 6 7 9 12 14 16
7 8 9 8 7 7 5 4 4 4 3 4 5 5 6 6 7 7 5 5 5 4 3 3 3 3 1 2 2 3 2 2 2 2 2 3 3 4 5 6 7 9 12
7 7 8 8 7 7 4 4 4 3 2 2 3 4 5 6 6 6 4 4 3 3 3 2 2 3 3 2 2 3 3 3 3 3 3 3 3 4 3 4 5 6 8
8 8 8 8 8 7 5 4 3 4 3 2 2 3 4 5 5 5 5 3 3 3 3 3 2 2 2 3 2 2 3 4 3 4 3 4 5 5 5 5 4 4 6
9 10 10 8 8 7 6 5 5 4 4 2 1 1 1 3 4 5 5 4 3 3 3 2 2 3 1 2 2 2 2 1 3 3 3 4 5 4 5 6 5 5 5
9 8 8 8 7 7 7 7 7 5 4 4 3 2 1 2 3 5 5 5 4 3 3 2 2 2 2 1 1 1 1 1 0 3 3 3 5 5 6 5 6 6 6
8 8 7 7 7 6 7 8 7 5 3 3 2 2 1 1 1 4 5 5 4 2 2 2 2 2 1 1 1 0 1 1 0 1 3 4 4 3 4 4 4 5 6
7 7 8 8 7 6 7 7 8 8 6 5 4 3 2 1 0 2 4 4 4 3 3 2 2 2 2 2 1 1 1 1 1 1 2 3 4 4 4 3 3 4 6
Wind_Direction
154 155 150 144 138 132 127 124 122 121 120 120 121 122 124 125 125 125 124 123 119 115 111 108 106 104 103 104 105 105 107 109 112 113 114 114 114 114 114 112 111 110 112
147 154 152 147 142 136 131 128 126 125 124 123 124 125 127 127 127 126 124 122 119 117 114 111 109 107 107 107 108 109 111 113 116 117 117 117 117 116 115 115 115 116 116
143 153 153 149 145 139 135 132 130 129 127 127 127 128 129 129 128 127 125 122 121 120 116 112 111 111 110 110 111 112 112 113 115 117 115 115 120 122 120 120 120 118 118
143 149 152 152 147 143 139 137 135 133 132 132 132 133 133 132 131 129 126 124 123 121 119 116 116 115 114 112 112 113 114 116 116 116 113 120 125 127 125 122 122 122 120
140 148 156 154 150 146 143 142 140 139 139 139 139 138 138 137 135 132 130 128 127 124 122 120 118 117 116 115 114 113 114 120 120 118 118 118 126 133 130 128 127 126 124
139 149 158 155 153 150 148 147 145 146 146 145 145 145 144 142 142 140 137 133 130 128 126 124 123 120 118 118 115 111 112 122 124 128 131 132 136 140 138 135 133 131 129
141 150 158 157 156 154 153 152 151 150 151 150 150 152 151 150 148 146 144 141 136 133 132 129 126 124 122 120 113 102 104 120 125 136 143 146 149 148 146 143 140 138 135
144 146 156 159 159 158 157 157 156 156 155 155 157 159 159 159 158 152 153 154 151 148 145 140 136 132 127 119 106 87 95 120 128 139 151 157 160 156 155 153 149 146 144
139 138 146 157 161 161 161 161 160 160 160 162 165 165 165 167 167 166 169 170 168 165 164 159 154 146 139 126 93 68 88 124 134 147 161 169 171 168 165 163 160 157 154
134 132 136 146 153 158 163 164 164 166 167 168 171 172 173 177 176 178 180 186 188 190 189 184 184 176 173 169 64 51 87 120 143 155 165 181 183 181 177 174 171 167 164
147 138 136 140 145 150 158 167 168 169 171 173 176 178 177 175 175 186 196 202 205 206 206 203 209 205 221 265 280 299 89 146 172 180 189 196 194 194 189 184 181 176 174
162 159 149 144 146 149 160 161 160 159 164 167 170 169 164 164 174 187 210 215 217 218 219 215 226 244 263 280 298 298 260 209 193 207 209 207 203 204 199 193 189 184 183
166 165 159 155 154 156 152 150 150 148 153 157 161 155 148 143 155 161 152 283 290 235 213 226 241 276 255 278 293 287 252 231 224 224 225 221 213 209 206 201 196 192 189
163 169 158 159 160 166 159 156 152 148 150 150 156 154 142 129 111 98 102 71 51 79 99 91 46 312 326 312 296 281 247 238 242 242 240 238 227 218 214 207 202 199 197
166 172 166 167 172 166 155 157 154 152 151 149 144 143 140 132 128 114 88 60 46 60 94 98 19 345 2 331 309 280 271 264 255 253 255 256 244 229 221 215 211 209 206
167 171 165 164 167 157 155 158 152 151 144 139 138 139 134 131 132 121 98 82 72 73 97 108 98 49 350 334 311 296 271 266 261 261 265 268 262 248 233 223 221 219 217
169 167 164 161 154 154 156 157 149 146 142 138 140 140 136 134 131 117 103 87 68 69 87 85 63 52 24 351 317 307 291 278 272 267 265 266 265 259 247 237 234 231 228
163 164 168 168 159 155 149 145 145 144 140 141 140 138 137 135 131 118 105 81 72 74 73 76 57 46 19 358 327 313 309 297 288 279 269 264 262 260 254 248 245 243 239
168 163 161 155 154 151 141 135 132 132 134 136 134 135 138 138 135 124 112 96 92 80 68 76 65 60 24 349 316 307 321 310 305 302 295 282 266 257 254 254 252 251 247
161 156 154 152 149 140 127 112 102 103 107 119 131 141 142 138 135 121 104 95 93 85 69 66 70 53 36 341 330 337 340 340 341 348 335 326 309 285 265 260 259 260 258
152 154 156 154 153 146 140 137 132 137 131 123 147 158 152 146 142 124 111 101 96 92 85 79 85 58 29 2 15 352 347 1 13 23 10 13 4 343 328 294 271 260 263
164 165 165 165 162 162 155 142 133 127 124 122 130 148 161 160 157 143 134 127 117 104 87 70 80 81 30 24 55 50 2 353 355 7 8 25 17 11 2 344 319 293 273
171 173 176 172 166 163 147 121 102 85 76 84 112 160 177 179 178 159 151 142 134 127 124 108 99 107 80 23 39 106 103 307 316 331 356 11 8 12 5 355 352 336 309
177 172 170 169 164 160 152 150 148 153 164 184 175 170 150 163 175 170 160 153 146 141 138 137 122 119 124 69 18 34 108 167 225 323 326 345 355 6 360 355 351 351 345
174 171 169 164 164 162 160 158 151 150 156 143 137 145 143 119 160 168 165 160 155 153 153 140 131 135 141 157 161 94 71 59 99 211 301 325 335 332 337 335 339 350 352
172 170 166 167 173 166 161 161 163 161 157 152 162 169 172 166 187 177 174 171 170 171 176 174 166 164 171 170 175 179 172 177 199 202 257 297 310 307 314 315 329 341 348
Height
1526 1529 1532 1535 1537 1539 1541 1543 1544 1546 1547 1548 1549 1550 1551 1552 1553 1554 1554 1555 1555 1556 1556 1557 1557 1557 1558 1558 1559 1559 1559 1559 1560 1560 1561 1562 1562 1563 1564 1565 1565 1567 1568
1524 1529 1533 1536 1539 1541 1542 1544 1546 1547 1548 1550 1551 1552 1553 1554 1554 1555 1556 1557 1557 1558 1558 1558 1559 1559 1559 1560 1560 1561 1561 1562 1562 1563 1563 1564 1564 1565 1566 1567 1568 1569 1570
1525 1529 1533 1537 1539 1542 1544 1546 1547 1549 1550 1551 1552 1553 1554 1555 1556 1557 1558 1558 1559 1559 1560 1560 1560 1561 1561 1562 1562 1563 1563 1564 1564 1565 1565 1566 1567 1568 1568 1569 1570 1571 1572
1526 1530 1534 1537 1540 1543 1545 1547 1549 1550 1552 1553 1554 1555 1556 1557 1558 1558 1559 1560 1560 1561 1561 1562 1562 1563 1563 1564 1564 1565 1565 1566 1566 1567 1568 1568 1569 1570 1571 1571 1572 1573 1574
1528 1531 1535 1538 1541 1544 1546 1548 1550 1551 1553 1554 1555 1556 1557 1558 1559 1560 1561 1561 1562 1562 1563 1564 1564 1564 1565 1566 1566 1567 1567 1568 1569 1569 1570 1570 1571 1572 1573 1573 1574 1575 1576
1529 1533 1536 1539 1542 1545 1547 1550 1551 1552 1554 1555 1556 1557 1558 1559 1560 1561 1562 1563 1563 1564 1565 1565 1566 1566 1567 1568 1568 1569 1570 1570 1570 1571 1571 1572 1572 1573 1574 1575 1576 1577 1578
1530 1534 1537 1540 1543 1546 1548 1550 1552 1553 1555 1556 1557 1558 1559 1560 1561 1562 1563 1564 1565 1565 1566 1567 1567 1568 1568 1569 1570 1571 1571 1572 1572 1572 1573 1573 1574 1575 1576 1577 1578 1579 1580
1531 1535 1538 1541 1544 1546 1549 1551 1552 1554 1555 1557 1558 1559 1560 1561 1562 1563 1564 1565 1566 1566 1567 1568 1568 1569 1570 1570 1571 1572 1572 1573 1573 1574 1574 1574 1575 1576 1577 1578 1579 1580 1581
1532 1535 1538 1542 1545 1547 1549 1551 1553 1554 1556 1557 1559 1560 1561 1562 1563 1564 1565 1566 1566 1567 1568 1569 1569 1570 1571 1571 1572 1573 1573 1574 1574 1575 1575 1575 1576 1577 1578 1579 1580 1581 1582
1533 1536 1539 1542 1545 1547 1549 1551 1553 1555 1556 1558 1559 1560 1561 1562 1563 1564 1565 1566 1567 1568 1569 1569 1570 1570 1571 1572 1572 1573 1574 1574 1575 1575 1576 1576 1577 1578 1578 1579 1580 1582 1583
1533 1536 1539 1542 1545 1547 1550 1552 1553 1555 1556 1558 1559 1561 1562 1562 1563 1564 1565 1566 1567 1568 1569 1569 1570 1570 1571 1572 1572 1573 1573 1574 1575 1575 1576 1576 1577 1578 1579 1580 1581 1582 1583
1531 1535 1539 1542 1545 1548 1550 1552 1553 1555 1556 1558 1559 1561 1562 1563 1563 1564 1565 1566 1567 1567 1568 1569 1569 1570 1570 1571 1571 1572 1573 1574 1574 1575 1576 1576 1577 1578 1579 1579 1581 1582 1583
1531 1534 1538 1542 1545 1547 1549 1552 1553 1555 1556 1558 1559 1560 1561 1562 1563 1564 1564 1565 1566 1566 1567 1567 1568 1569 1569 1570 1570 1571 1572 1573 1573 1574 1575 1575 1576 1577 1578 1579 1580 1581 1583
1531 1535 1538 1541 1545 1547 1550 1552 1553 1555 1556 1558 1559 1560 1561 1562 1563 1563 1564 1564 1565 1565 1566 1566 1567 1567 1568 1568 1568 1569 1570 1571 1572 1573 1573 1574 1575 1576 1577 1578 1579 1580 1582
1530 1535 1538 1542 1544 1547 1549 1551 1553 1554 1556 1557 1559 1560 1561 1561 1562 1562 1562 1563 1563 1564 1564 1565 1565 1565 1566 1566 1567 1567 1568 1569 1569 1570 1571 1572 1573 1574 1575 1576 1577 1579 1580
1531 1534 1538 1542 1544 1546 1548 1551 1553 1554 1555 1557 1558 1559 1560 1560 1560 1561 1561 1562 1562 1562 1562 1563 1563 1563 1564 1564 1564 1565 1566 1566 1567 1568 1569 1570 1571 1571 1573 1574 1575 1577 1578
1530 1534 1537 1541 1544 1546 1548 1551 1553 1554 1555 1556 1557 1558 1559 1559 1560 1560 1560 1560 1560 1561 1561 1561 1561 1562 1562 1562 1563 1563 1563 1564 1565 1565 1566 1567 1568 1569 1570 1571 1573 1574 1576
1530 1533 1537 1541 1543 1545 1548 1550 1552 1553 1554 1555 1556 1557 1558 1559 1559 1559 1559 1559 1559 1559 1559 1560 1560 1560 1560 1561 1561 1561 1561 1562 1562 1563 1563 1564 1565 1566 1567 1568 1570 1571 1573
1530 1533 1536 1539 1542 1545 1547 1549 1551 1552 1553 1555 1556 1557 1558 1558 1559 1558 1558 1558 1558 1558 1558 1558 1559 1559 1559 1559 1559 1560 1560 1560 1560 1560 1561 1561 1562 1563 1565 1566 1567 1568 1569
1529 1532 1536 1539 1541 1543 1546 1548 1550 1551 1553 1554 1555 1556 1557 1558 1558 1558 1558 1557 1557 1557 1557 1558 1558 1558 1558 1558 1558 1558 1558 1558 1558 1558 1558 1559 1559 1561 1562 1563 1564 1565 1566
1528 1531 1535 1538 1540 1542 1545 1547 1549 1550 1552 1553 1555 1556 1557 1557 1557 1557 1557 1557 1557 1557 1557 1557 1557 1557 1556 1556 1556 1556 1556 1556 1556 1556 1556 1557 1557 1558 1559 1560 1561 1562 1563
1527 1531 1534 1537 1539 1541 1544 1546 1548 1550 1552 1553 1554 1555 1556 1557 1557 1557 1557 1556 1556 1556 1556 1556 1556 1556 1555 1555 1555 1554 1554 1556 1555 1555 1555 1556 1556 1556 1557 1557 1558 1559 1560
1526 1529 1533 1536 1538 1541 1543 1546 1548 1549 1551 1552 1553 1554 1555 1556 1556 1556 1556 1556 1556 1556 1556 1555 1555 1555 1555 1554 1554 1554 1554 1553 1554 1554 1554 1554 1554 1555 1555 1555 1556 1556 1557
1525 1529 1532 1535 1538 1540 1543 1545 1546 1548 1549 1551 1552 1553 1554 1555 1555 1555 1556 1555 1555 1555 1555 1555 1554 1554 1554 1553 1553 1553 1553 1553 1553 1553 1553 1553 1553 1553 1553 1553 1553 1554 1554
1524 1528 1532 1535 1537 1540 1542 1544 1545 1547 1548 1550 1551 1552 1552 1553 1554 1554 1554 1555 1555 1554 1554 1554 1553 1553 1553 1552 1552 1552 1552 1552 1552 1552 1551 1551 1551 1551 1551 1551 1551 1551 1552
1523 1527 1530 1533 1536 1538 1540 1542 1544 1546 1547 1548 1549 1550 1551 1551 1552 1553 1553 1553 1553 1553 1553 1553 1552 1552 1551 1551 1551 1550 1550 1550 1550 1550 1549 1548 1548 1548 1549 1549 1549 1549 1549